Theta_e
300 301 301 303 304 305 303 293 283 298 301 286 285 283 285 289 285 287 288 286 285 283 285 286 286 286 287 292 295 290 294 289 281 285 287 291 292 288 289 283 279 283 281 281
300 301 301 303 304 305 295 285 287 297 297 281 281 284 285 286 285 284 285 285 286 287 285 280 286 287 291 293 293 291 293 287 278 283 287 291 289 290 290 289 286 281 279 279
300 300 301 303 305 304 294 286 281 289 290 288 283 281 280 282 286 286 287 286 288 285 283 287 284 286 290 294 294 297 295 288 284 279 280 287 286 288 289 289 283 282 283 282
300 301 301 304 304 303 294 287 282 282 281 282 284 284 279 281 281 285 288 284 286 284 279 281 282 286 289 291 295 295 293 285 286 287 285 286 286 286 288 287 288 284 285 285
300 300 300 303 304 302 291 284 283 284 276 285 283 283 282 281 282 283 282 284 285 286 283 284 281 285 286 288 291 292 292 286 287 284 286 286 284 287 288 289 289 289 286 285
300 302 303 303 303 299 289 290 289 286 285 283 282 281 280 282 284 287 286 285 284 285 287 289 290 292 291 289 288 286 286 285 284 281 285 285 281 285 288 289 291 290 285 290
301 301 302 303 303 297 290 288 287 283 279 281 281 282 283 282 284 283 286 287 285 288 292 294 293 293 293 292 290 292 287 285 285 280 283 276 285 289 291 289 291 292 285 288
301 302 302 302 303 299 292 291 287 281 276 280 281 282 281 284 286 285 286 287 289 292 291 285 282 282 284 285 286 288 292 288 283 280 279 280 280 283 285 287 286 286 286 281
302 302 302 303 303 301 292 293 293 288 281 278 284 282 283 278 278 283 284 289 292 291 286 283 276 271 278 280 283 289 291 292 285 277 275 275 280 281 282 289 280 279 281 278
302 302 302 303 302 302 295 291 295 290 281 283 285 281 282 284 281 281 285 286 287 291 284 271 272 274 280 279 280 282 284 284 282 281 277 280 281 278 280 279 279 277 277 277
302 302 302 302 303 302 298 292 295 293 283 284 285 285 282 283 282 281 284 285 286 285 282 277 276 278 279 278 282 284 283 282 282 277 277 276 271 277 280 276 274 274 272 273
302 302 302 303 302 301 300 292 296 296 288 286 289 287 289 288 287 286 287 286 287 288 284 279 277 273 279 277 279 284 282 283 281 281 278 270 270 271 272 274 272 271 270 271
303 303 303 303 303 303 300 293 294 292 285 286 286 286 288 291 288 289 285 285 290 288 288 282 278 274 279 277 278 278 278 278 276 273 270 269 268 268 269 270 269 269 269 269
303 303 303 304 304 303 299 293 292 292 287 282 282 291 286 290 289 289 290 290 291 291 288 282 276 273 282 278 279 280 274 276 271 268 268 268 269 269 268 267 267 266 267 267
303 304 304 304 304 302 293 291 289 290 288 279 282 285 288 289 290 290 291 292 288 285 283 281 279 280 281 278 277 272 268 272 273 274 269 269 268 268 268 266 266 266 265 265
304 304 304 304 301 299 295 285 290 290 290 281 279 284 284 285 288 286 284 285 284 283 280 278 278 280 280 277 278 266 264 263 262 264 263 265 265 265 266 264 264 265 265 265
304 305 305 303 300 289 286 284 286 289 288 284 275 276 283 283 285 284 283 281 278 279 278 271 277 276 277 274 270 263 262 263 263 263 264 262 261 261 262 263 263 262 261 262
303 301 299 297 295 291 285 285 286 290 286 279 269 271 279 281 281 280 282 278 278 273 272 273 274 275 271 269 264 262 261 261 260 259 260 261 259 259 258 258 258 258 258 258
299 298 296 290 285 283 283 290 287 281 281 268 264 267 269 278 280 280 278 280 273 272 272 269 271 268 269 264 263 261 260 260 258 257 256 257 257 256 254 254 252 254 253 252
297 290 285 281 281 287 286 280 280 275 270 270 267 267 268 275 274 272 275 276 273 272 268 269 263 263 260 260 261 261 259 257 257 255 254 253 252 254 252 250 249 251 251 250
286 281 274 280 283 282 275 270 272 269 267 263 263 267 264 272 269 273 276 273 271 270 267 269 266 269 263 258 256 256 256 256 253 251 252 252 254 253 251 248 246 247 247 248
283 277 278 276 268 268 269 262 267 264 261 260 264 265 267 269 274 276 274 270 268 266 260 268 265 267 257 255 254 253 255 254 251 249 250 249 252 250 250 248 246 245 246 246
280 274 270 270 264 265 265 264 262 263 259 259 261 266 267 270 274 272 274 270 268 262 264 262 265 260 257 254 252 249 244 246 247 245 245 248 246 244 247 247 245 245 246 246
267 267 265 262 260 258 257 257 256 258 260 258 260 261 266 267 269 268 270 260 260 260 261 263 262 258 256 250 247 249 247 247 249 248 245 247 248 246 244 245 245 246 247 247
262 266 260 256 257 256 255 254 255 255 256 257 259 261 266 267 268 263 260 261 260 261 264 261 255 250 253 250 248 248 249 248 247 244 246 246 245 246 247 246 246 245 244 244
260 257 257 251 254 254 251 248 250 253 253 252 253 254 260 258 257 261 263 262 261 263 257 253 249 251 251 250 250 250 249 248 246 245 245 246 247 248 248 243 243 244 244 245
257 254 247 250 249 253 250 247 250 254 249 253 249 258 258 255 255 258 255 260 261 255 251 246 247 253 253 249 249 248 248 247 245 245 245 246 243 242 244 247 248 244 245 245
Wind_Speed
22 23 23 24 26 24 20 5 6 10 15 12 5 12 8 7 4 2 3 4 5 9 10 12 15 15 15 9 17 26 19 4 6 14 1 5 16 12 16 6 6 5 2 13
23 24 24 26 28 28 5 6 3 6 13 11 4 5 5 6 7 5 7 6 5 4 11 4 18 12 9 7 18 17 14 9 4 4 3 1 10 11 14 14 2 13 4 6
26 25 25 28 29 28 6 4 5 5 7 3 7 8 7 6 3 6 2 4 7 4 6 8 9 13 7 11 13 16 18 9 12 14 4 10 12 15 18 16 7 12 18 6
28 26 25 30 29 31 6 2 3 2 7 10 3 4 7 14 7 2 11 5 10 15 9 4 5 4 4 1 8 16 13 11 16 17 4 7 11 19 21 21 23 11 11 17
21 28 29 29 30 28 4 3 4 2 3 12 12 13 6 12 5 9 4 8 14 11 15 17 10 7 5 7 4 9 3 7 18 21 11 9 6 16 20 25 23 19 4 7
17 27 31 29 26 15 4 1 2 3 8 9 13 10 8 16 8 8 11 20 12 10 21 16 11 9 7 5 11 15 10 5 4 20 9 8 8 22 19 20 20 20 18 17
24 21 23 28 29 11 4 3 4 4 4 8 14 11 8 10 18 6 3 7 14 8 4 5 1 2 4 4 8 10 10 18 11 4 7 17 11 12 20 23 18 16 3 6
24 24 24 26 27 16 4 3 4 4 3 4 6 3 7 5 7 11 4 6 4 5 4 2 3 3 1 11 14 18 18 15 8 8 10 5 4 6 10 15 15 8 12 8
22 22 23 25 25 22 4 2 3 4 5 6 5 6 5 5 4 2 3 3 3 4 3 4 7 6 7 6 5 18 16 15 11 3 8 12 3 2 4 8 8 9 7 13
23 23 24 25 25 24 6 1 4 4 4 2 6 5 10 6 4 3 3 4 5 3 5 4 5 6 3 6 7 8 15 8 18 11 4 4 2 2 4 11 4 5 6 9
24 23 22 20 23 23 9 2 3 3 2 1 1 2 5 4 3 5 4 3 1 2 8 5 5 4 5 2 3 4 8 7 5 4 1 8 3 0 7 3 6 8 7 7
22 22 21 21 23 23 17 2 2 3 4 2 0 2 2 1 3 4 3 5 4 2 2 2 3 1 2 4 2 4 5 2 6 3 3 4 5 4 5 2 7 5 9 9
23 22 21 21 22 25 16 3 4 5 2 2 1 4 1 1 0 3 4 2 3 4 4 2 3 3 2 5 5 2 2 2 4 5 2 3 4 8 6 8 11 11 10 9
24 23 21 21 22 24 11 3 2 4 3 3 2 1 2 6 5 6 4 3 3 4 5 2 2 3 3 2 2 1 0 3 7 4 3 5 1 6 10 13 13 12 9 9
25 23 22 22 22 20 9 4 2 0 2 3 2 1 2 5 3 5 5 4 5 2 2 2 2 1 2 1 2 3 3 5 5 5 7 2 7 13 13 13 12 10 12 10
23 21 22 23 25 20 4 3 2 4 3 4 3 1 3 4 5 11 10 5 4 3 1 0 1 1 2 3 4 3 3 2 2 2 6 12 13 10 8 11 10 10 10 10
23 23 23 25 21 6 4 1 2 5 1 3 2 2 2 4 2 3 2 4 3 3 2 2 1 2 2 1 3 5 5 6 9 7 7 8 4 6 7 10 10 9 9 8
25 28 28 27 25 15 4 5 7 2 4 4 4 2 1 6 2 2 3 2 2 5 1 1 2 1 2 3 4 8 7 7 5 7 5 6 13 10 7 6 6 8 7 5
30 26 19 7 7 3 1 9 9 6 5 4 4 4 3 7 2 1 2 1 4 2 3 2 2 2 5 1 8 11 7 4 9 7 8 9 11 9 6 5 4 6 4 3
18 9 4 3 2 4 3 6 4 6 6 6 4 1 1 4 3 2 1 2 2 2 3 2 3 4 0 1 3 6 6 9 9 8 4 4 4 6 5 4 3 4 4 4
4 4 2 1 5 2 4 4 5 4 4 5 2 1 1 3 2 1 2 1 2 3 1 1 2 4 3 4 4 4 6 6 5 1 1 4 6 9 7 4 3 3 3 3
4 7 5 3 6 4 7 2 1 4 2 4 1 2 2 3 2 1 1 1 3 3 3 1 3 1 4 5 4 3 5 6 5 3 6 5 9 7 7 5 4 3 3 2
4 7 7 5 6 7 3 5 2 2 3 3 3 2 1 2 3 2 1 2 2 1 2 5 4 4 6 5 5 4 3 5 6 4 5 7 6 4 4 5 3 4 3 3
7 5 6 5 4 2 0 1 1 2 2 3 2 3 1 2 3 1 3 0 2 3 1 6 3 6 9 6 3 6 6 5 7 7 5 6 6 4 2 3 4 5 4 4
6 4 4 3 1 1 1 1 0 2 3 3 1 2 2 2 3 3 4 3 2 6 6 4 2 3 10 8 6 6 7 7 5 4 4 4 5 4 3 4 4 4 3 4
5 8 5 0 2 1 2 1 1 1 1 1 2 1 4 3 3 3 4 5 6 5 4 3 4 6 7 7 8 6 5 6 5 4 4 4 6 6 5 2 4 5 4 5
6 2 1 2 2 3 3 3 3 1 3 1 3 4 5 1 4 2 4 6 5 4 3 1 2 6 8 6 6 6 6 6 5 5 5 5 3 4 2 3 4 4 6 5
Wind_Direction
223 220 220 209 204 193 180 143 172 177 157 195 190 202 174 187 154 165 176 116 172 181 181 202 207 206 206 194 188 202 201 180 209 208 177 208 216 223 207 212 204 234 224 264
217 222 218 209 202 185 133 136 119 185 169 201 181 141 174 162 159 177 181 170 214 196 189 205 208 199 206 180 192 189 166 211 210 232 253 142 207 208 206 211 109 217 205 261
218 216 214 204 193 167 115 130 144 146 191 182 191 163 180 159 162 203 165 188 216 275 220 217 196 217 210 200 198 207 165 202 217 222 197 142 207 200 208 207 224 237 226 239
210 207 205 195 183 157 112 141 165 183 165 190 168 143 177 176 156 209 201 227 213 211 244 223 202 192 204 229 214 208 209 227 217 232 251 186 199 206 202 205 218 205 225 213
187 222 200 181 174 151 89 120 138 65 141 184 164 174 186 174 158 146 193 221 218 226 228 227 235 178 196 205 240 222 242 246 211 220 213 209 238 208 205 210 223 233 249 259
187 161 167 162 175 133 106 134 64 94 154 156 185 203 176 184 182 220 204 205 202 216 225 218 224 190 182 198 205 201 230 241 260 220 193 184 234 218 202 213 217 212 219 226
170 165 162 165 165 143 116 172 128 105 129 162 197 197 181 180 191 163 205 176 195 213 188 121 129 170 205 278 281 219 215 220 216 248 184 211 240 180 195 203 210 205 135 166
175 170 167 168 171 150 90 143 114 106 104 155 153 149 192 129 192 196 169 217 223 167 111 63 204 198 310 236 237 267 215 219 209 220 231 325 275 197 174 181 216 183 177 134
174 172 169 173 174 171 99 118 111 102 119 227 142 192 187 172 161 122 238 259 236 101 130 173 203 187 189 217 250 210 222 220 205 137 193 220 216 136 1 94 259 180 158 149
176 179 177 176 179 175 153 140 123 102 155 241 153 162 202 161 157 171 155 183 190 175 168 157 174 233 167 222 197 184 198 223 224 193 200 253 179 299 274 143 239 104 114 134
181 182 179 179 174 176 155 166 152 126 150 192 159 168 151 150 175 156 189 112 152 195 188 165 204 168 202 258 200 168 198 171 194 85 185 240 9 288 171 91 42 102 86 96
181 186 186 181 182 177 176 136 131 93 74 96 270 129 85 303 322 155 219 155 131 228 223 202 104 147 173 140 259 245 199 211 165 164 206 35 5 69 32 67 117 103 105 93
185 184 183 182 182 177 174 130 121 71 67 19 286 221 90 140 65 288 137 297 177 161 120 249 174 191 150 158 225 231 119 355 83 115 154 133 100 66 67 87 101 95 95 97
186 184 183 182 179 188 151 113 129 108 119 165 208 310 334 291 273 200 223 151 65 91 103 255 165 172 258 121 136 227 58 83 119 66 108 91 174 138 127 109 105 103 93 98
181 183 177 175 170 145 87 79 65 144 159 161 134 31 340 325 5 140 185 138 117 107 140 217 147 71 116 60 84 220 188 159 173 202 158 127 135 148 141 130 129 129 124 113
175 176 174 169 147 133 112 110 334 3 36 110 135 260 355 345 31 71 60 39 66 90 99 164 89 91 50 195 201 124 117 75 213 134 75 89 101 95 108 119 122 115 119 120
167 164 159 147 144 70 84 59 321 301 260 91 68 24 11 325 355 49 76 32 52 61 94 37 77 62 19 129 228 128 103 89 104 105 107 73 336 144 106 110 106 97 85 81
116 115 108 102 99 108 59 18 23 176 93 73 111 278 59 5 24 72 10 78 110 34 97 27 28 102 47 253 114 127 123 122 72 31 37 83 109 96 87 85 107 108 105 106
103 94 84 75 39 64 57 339 28 39 65 110 70 129 220 340 37 63 45 21 57 305 67 38 321 13 222 1 160 159 167 182 135 83 67 83 101 110 100 98 75 120 122 90
80 41 48 70 43 337 356 16 29 24 2 22 77 235 337 338 1 27 105 26 106 52 17 319 67 260 137 19 20 124 132 135 134 103 92 95 95 143 142 157 131 118 129 127
42 74 92 246 328 82 37 52 40 342 41 9 325 331 47 328 67 75 15 116 126 139 235 214 308 271 156 121 99 89 125 130 78 54 119 130 135 151 145 136 124 115 121 162
116 120 88 56 32 37 80 14 10 31 170 332 343 318 334 308 339 178 300 119 44 218 335 81 274 150 116 139 140 99 108 114 85 42 108 102 111 122 125 127 140 173 184 194
51 51 55 27 328 47 120 201 252 158 352 8 341 131 285 284 249 77 89 102 138 211 40 224 237 132 160 149 119 103 53 105 123 102 86 96 113 108 124 146 194 166 181 206
64 59 48 38 358 31 207 331 24 12 339 352 318 272 313 262 51 359 130 152 63 52 15 240 235 186 161 138 141 130 173 164 146 143 140 132 136 154 178 181 157 155 197 205
69 43 75 61 227 67 119 234 326 346 321 333 312 277 288 19 97 29 110 45 271 207 226 232 241 182 148 161 170 170 165 170 164 153 146 155 152 152 184 209 188 182 179 202
66 49 100 282 106 296 358 350 260 288 326 23 39 77 53 350 116 75 215 123 217 245 221 218 149 158 162 168 177 180 157 156 151 149 154 149 169 179 198 168 198 207 194 217
58 47 16 95 79 161 202 167 215 233 79 140 95 70 207 79 44 329 192 201 219 219 267 244 236 180 174 141 136 152 157 158 155 156 170 183 154 130 111 232 243 216 220 220